Simultaneous Nadir Overpasses (SNOs) Predictions

Prediction of SNOs between METOP-C and LANDSAT-8 Satellite Orbit:

Table of predicted SNOs for the next 14.0 days since TLE Epoch: 8/13/2022
Index Date (METOP-C) Time (METOP-C) Lat,Lon (METOP-C) SZA (METOP-C ) Date (LANDSAT-8) Time (LANDSAT-8) Lat,Lon (LANDSAT-8) SZA (LANDSAT-8 ) Distance(km) Time Diff (sec)
1 08/14/2022 20:17:18 -81.18, 96.59 110.90 08/14/2022 20:18:15 -81.18, 96.48 110.89 1.83 57
2 08/14/2022 21:07:59 81.19, -95.96 69.13 08/14/2022 21:07:41 81.19, -95.77 69.14 3.27 18
3 08/17/2022 15:51:38 -81.18, 162.96 110.01 08/17/2022 15:52:30 -81.18, 162.88 110.00 1.38 52
4 08/17/2022 16:42:18 81.20, -29.19 70.07 08/17/2022 16:41:55 81.21, -29.03 70.09 2.99 23
5 08/20/2022 11:25:59 -81.18,-130.71 109.09 08/20/2022 11:26:46 -81.17,-130.80 109.08 1.87 47
6 08/20/2022 12:16:39 81.20, 37.15 70.99 08/20/2022 12:16:11 81.20, 37.26 70.99 1.87 28
7 08/23/2022 07:00:19 -81.19, -64.02 108.10 08/23/2022 07:01:01 -81.18, -64.20 108.10 3.05 42
8 08/23/2022 07:50:59 81.21, 103.84 71.98 08/23/2022 07:50:26 81.21, 103.84 71.97 0.24 33
9 08/26/2022 02:34:39 -81.18, 2.24 107.14 08/26/2022 02:35:15 -81.19, 2.33 107.11 1.45 36



Historial Predications of SNOs between METOP-C and LANDSAT-8
